Temp
18 20 20 21 21 20 20 20 20 19 19 20 20 20 20 19 20 20 20 17 16 19 21 20 19 19 20 19 20 19 16 16 17 17 16 16 15 15 15 14 14 14 13 12 12 12 12 12 12 12 12 11 10 9 9 9 9 10 10 11 11 12 12 13 13 14 13 13 13 12 12 13 12 12 13 14 14 14 14 14 13 13 13 13 13 13
17 20 20 21 20 19 19 18 18 18 18 19 20 20 19 18 19 20 19 17 16 19 20 19 19 19 19 19 18 18 17 18 18 18 18 17 16 16 16 15 15 14 13 12 11 10 11 11 11 11 11 10 10 9 9 9 9 10 10 11 11 11 12 12 13 14 13 13 14 13 12 13 12 12 13 13 13 13 13 13 13 13 12 12 12 12
18 19 20 19 17 17 17 16 17 18 18 19 18 18 19 18 18 19 18 16 16 18 19 18 18 18 18 18 18 17 17 18 18 18 19 18 18 17 16 16 15 15 14 13 11 8 8 9 10 10 10 10 10 9 9 9 9 10 10 10 11 11 12 12 12 13 12 12 14 13 13 13 12 12 12 12 13 13 13 13 13 12 12 12 12 12
19 19 19 17 17 18 17 16 17 18 18 18 18 18 19 18 18 20 19 16 16 17 17 17 17 17 18 18 18 19 17 17 17 17 17 17 17 17 17 16 16 16 15 14 12 8 7 7 8 8 9 9 9 9 8 8 9 9 10 10 10 11 11 11 12 12 11 12 13 12 12 13 12 11 12 12 12 12 12 12 12 12 12 12 12 12
20 19 15 15 17 19 18 16 17 18 18 18 17 18 19 18 19 20 18 17 17 16 15 17 18 18 18 19 20 19 16 17 17 17 17 16 16 16 16 16 16 16 15 14 13 10 6 6 7 7 8 8 9 9 8 8 9 9 9 9 10 10 11 11 11 11 10 11 12 11 11 11 10 10 10 11 11 10 11 11 11 11 12 11 12 12
19 17 15 16 17 17 18 17 18 19 19 18 18 18 19 20 19 18 17 18 19 18 15 16 19 20 19 19 20 19 18 20 20 18 19 18 16 16 15 15 15 15 15 14 14 11 7 6 7 7 7 8 8 9 8 8 8 9 9 9 10 10 10 10 11 11 10 11 12 11 10 9 8 8 9 10 10 10 11 11 11 11 11 11 11 11
18 16 16 18 17 16 18 17 17 18 19 19 18 17 18 18 18 17 17 18 19 19 15 14 19 19 18 20 21 19 20 22 22 21 21 19 18 17 16 16 16 15 15 14 13 11 8 7 6 6 7 8 8 8 8 8 8 9 9 9 9 9 10 10 10 10 10 11 11 11 11 11 10 10 9 9 10 11 11 11 10 11 11 11 11 11
17 16 16 17 17 17 17 18 17 16 19 19 16 15 17 17 17 17 17 18 18 17 15 14 17 17 17 19 19 18 20 20 20 20 20 19 19 18 17 17 16 15 15 14 13 11 8 7 6 7 7 7 8 8 8 8 8 8 9 9 9 9 9 9 10 9 9 10 10 11 11 11 11 11 11 10 10 10 10 10 10 10 10 10 10 10
17 18 17 17 18 17 17 18 17 16 19 18 13 13 15 16 17 16 16 17 15 15 17 16 16 17 18 19 17 16 18 20 21 21 21 20 20 19 19 18 16 15 14 13 13 11 8 7 7 7 7 7 8 8 8 8 8 8 8 9 9 8 8 9 9 9 9 10 10 10 11 10 10 10 10 10 10 10 9 9 10 9 10 9 9 10
16 16 16 17 18 18 17 16 14 17 19 15 11 13 14 14 15 15 16 17 15 15 18 17 16 18 19 19 19 18 18 21 22 22 21 20 19 18 18 17 16 14 13 13 12 10 8 8 8 7 8 7 8 8 8 8 8 8 8 8 8 8 9 9 9 10 10 9 10 10 10 10 9 9 9 9 9 9 9 9 9 9 9 9 9 9
15 12 13 16 17 17 16 13 12 15 16 13 14 17 17 16 16 15 15 16 17 17 18 17 17 19 18 18 19 20 20 21 23 22 21 21 22 21 18 16 15 14 13 12 11 9 7 7 8 7 8 7 8 8 8 8 8 8 8 8 8 8 9 9 9 9 9 9 9 10 10 10 10 9 8 8 8 8 8 8 8 8 8 9 9 9
15 15 15 15 14 15 16 14 12 12 12 15 18 19 18 18 17 16 16 15 17 18 17 15 15 17 17 18 19 20 20 20 21 21 22 24 25 24 19 15 14 13 12 11 10 9 6 6 6 7 7 7 7 8 8 8 8 8 8 8 8 8 8 9 9 9 9 9 9 9 9 10 10 10 9 9 9 8 8 8 8 8 8 8 8 9
16 16 16 15 13 15 17 16 14 13 13 16 18 18 18 18 17 18 17 15 16 17 15 12 14 16 16 18 19 19 19 20 19 18 20 22 24 24 19 15 14 12 11 10 9 9 7 6 5 5 7 7 7 8 7 7 8 7 8 8 8 8 8 8 8 8 8 8 8 9 9 9 10 10 10 10 10 9 8 8 8 8 7 8 8 9
17 16 15 16 15 15 18 18 16 16 15 16 18 18 18 18 18 18 17 15 16 17 14 12 14 15 16 19 19 19 20 20 19 18 18 18 19 20 18 15 13 12 11 11 9 8 7 6 5 5 6 7 7 7 7 7 7 7 7 7 8 7 7 8 8 8 8 7 8 8 9 9 9 10 10 10 10 10 9 9 9 8 8 8 8 9
17 18 16 17 17 16 17 19 19 17 15 15 17 17 18 18 19 19 19 18 18 17 14 13 15 17 19 20 18 17 18 18 18 17 16 16 15 15 15 14 14 13 12 10 8 7 6 5 5 5 6 6 7 7 7 7 7 7 7 7 7 7 7 7 7 7 7 7 7 7 8 9 9 9 10 10 10 10 10 10 9 9 8 9 9 9
17 18 17 15 16 16 17 18 18 17 16 15 15 17 18 18 19 19 17 16 16 16 15 15 16 17 18 19 17 17 18 18 18 16 16 17 16 14 14 15 15 14 13 10 8 7 5 4 5 5 6 6 7 7 7 7 7 7 7 7 7 7 7 7 7 7 7 7 7 7 7 8 8 8 9 8 8 9 10 10 10 9 9 9 10 10
17 17 15 14 15 15 15 17 17 17 18 16 15 17 16 15 18 19 15 12 13 15 17 16 17 17 18 19 20 19 20 20 19 18 18 18 17 15 16 15 15 14 13 11 8 7 5 4 4 5 5 6 6 7 7 7 7 7 7 7 7 7 7 7 7 7 7 6 6 6 7 7 8 8 8 8 8 9 9 9 10 10 9 9 10 10
18 18 14 13 15 13 12 15 16 15 16 16 16 16 15 14 17 18 17 15 14 15 17 16 17 18 19 20 20 19 20 20 20 19 19 19 17 17 17 17 15 13 12 10 8 6 4 3 4 5 5 6 6 7 7 7 7 7 7 7 7 7 7 7 7 6 6 6 6 6 6 7 7 8 8 9 9 10 10 9 9 9 9 10 10 9
18 19 15 11 14 14 12 15 17 14 13 15 15 16 16 17 17 16 17 18 16 16 17 16 15 16 18 19 20 21 21 22 22 20 19 19 18 17 18 18 15 13 12 10 8 6 5 3 4 4 5 5 6 6 7 7 7 7 7 7 7 7 7 7 6 6 6 6 6 6 7 7 7 8 8 8 9 9 10 10 9 9 9 9 9 9
17 19 17 11 11 14 14 15 16 14 13 14 14 15 16 17 17 16 16 17 17 18 18 18 17 17 18 18 20 22 22 23 25 23 20 20 18 17 18 19 16 14 14 12 9 7 5 3 3 4 5 5 6 6 6 7 7 7 7 7 7 7 6 6 6 6 6 6 6 6 7 7 7 8 8 8 8 9 10 9 9 9 9 9 9 9
17 18 17 13 11 13 15 15 15 15 15 15 15 15 15 15 15 16 15 15 17 18 17 17 19 20 19 17 20 23 22 22 23 22 22 22 20 18 17 17 15 14 14 12 9 7 5 3 3 4 5 5 5 5 6 6 7 7 7 7 6 6 6 6 6 6 6 6 6 6 6 7 7 8 8 8 8 9 9 9 9 9 9 9 9 8
17 17 16 14 12 14 15 14 14 15 16 16 16 16 16 16 15 16 16 14 15 16 17 16 18 21 20 17 19 22 21 20 19 20 23 24 21 18 16 15 14 14 14 11 8 6 5 3 3 4 4 4 5 5 5 6 6 6 6 6 6 6 6 6 6 6 6 6 6 6 6 7 7 8 7 7 7 8 8 8 8 8 8 8 8 8
17 17 16 14 13 14 14 12 10 12 14 15 15 15 16 16 16 18 17 15 14 15 15 15 16 20 19 16 16 19 20 17 16 17 20 22 23 20 15 14 13 13 12 10 7 6 4 2 3 3 3 4 4 4 5 5 6 6 6 6 6 6 6 6 6 6 6 6 6 6 6 6 6 7 7 7 7 7 7 7 7 8 8 8 8 8
17 17 17 16 15 14 14 12 11 11 13 14 14 14 15 16 16 17 17 16 16 16 15 14 15 19 18 14 14 16 16 16 15 16 16 18 22 21 15 14 15 13 11 9 7 5 3 2 3 3 3 3 3 4 4 5 5 5 6 6 6 6 6 6 6 6 6 6 6 6 6 6 6 6 6 6 6 7 7 7 7 7 7 7 8 7
16 16 17 16 16 15 14 14 13 12 12 14 14 14 15 16 16 16 15 15 16 17 17 16 16 19 18 15 15 15 15 17 17 17 17 17 20 21 17 14 14 13 12 10 8 5 4 3 3 2 2 3 3 3 3 4 4 5 5 6 6 6 6 6 6 6 6 6 6 5 5 5 5 5 5 5 5 6 6 6 6 6 6 7 7 7
17 17 17 16 16 16 16 16 15 14 12 12 14 14 14 15 15 16 16 15 16 17 16 17 18 19 18 18 18 18 18 20 19 17 17 16 18 19 17 16 15 14 13 11 9 6 4 4 3 2 2 3 3 3 3 3 4 4 5 5 5 6 5 5 6 6 6 5 5 5 5 4 4 4 4 4 4 5 5 5 5 5 6 6 6 6
17 17 17 17 17 17 18 17 15 14 13 13 14 14 14 14 14 16 16 15 16 16 15 17 18 19 19 19 19 19 19 21 21 19 18 17 18 17 17 17 16 14 11 10 8 6 5 4 3 2 2 2 3 3 3 3 3 4 4 4 5 5 5 5 5 5 5 5 5 4 4 4 4 4 4 4 4 4 4 5 5 5 5 5 6 6
16 16 16 17 17 18 19 17 14 15 16 15 14 14 14 14 14 14 15 16 17 16 16 17 18 17 18 19 19 20 20 20 21 21 20 20 19 18 17 17 16 13 10 9 8 7 5 5 4 2 2 2 2 3 3 3 3 3 4 4 4 5 5 5 5 5 5 4 4 4 4 4 4 4 4 4 4 4 4 4 4 4 4 5 5 6
16 16 17 17 17 18 19 17 14 15 16 15 15 14 14 13 13 14 15 16 17 16 17 18 18 17 18 19 19 19 20 21 22 22 20 19 18 18 18 18 19 17 13 12 11 8 5 5 4 3 2 2 2 2 2 3 3 3 3 3 4 4 4 5 5 4 4 4 4 4 4 4 4 4 4 4 3 3 3 3 3 3 4 4 5 5
16 16 16 16 16 16 17 16 15 15 15 15 14 14 14 13 13 14 15 16 16 16 17 18 17 17 18 19 19 19 19 21 21 20 19 17 18 20 19 19 20 19 16 15 13 9 6 5 5 3 2 2 2 2 2 2 2 3 3 3 3 4 4 4 4 4 4 4 4 4 4 3 3 3 3 3 3 3 2 2 2 2 3 3 4 5
14 15 16 16 15 15 16 16 15 15 15 15 14 14 14 14 13 14 14 15 15 15 16 16 16 16 17 18 19 18 18 19 19 19 18 18 19 19 19 18 18 18 17 15 13 10 7 5 5 4 2 2 2 2 2 3 2 2 2 2 3 3 3 4 4 4 4 4 4 3 3 3 3 2 2 2 2 2 2 2 2 2 2 3 4 4
13 14 15 15 14 14 15 15 15 14 14 14 14 14 14 14 14 14 14 15 15 15 15 15 15 16 17 18 19 18 18 18 19 18 18 18 17 17 18 18 17 17 16 15 14 11 9 7 7 6 4 3 3 3 3 3 3 2 2 2 2 3 3 3 3 3 3 3 3 3 3 3 3 2 2 2 2 2 2 3 2 2 2 2 3 3
13 13 13 13 12 13 14 14 14 14 13 13 14 15 15 14 14 14 14 14 15 15 15 15 16 17 18 17 18 17 17 18 18 18 18 17 17 16 16 16 16 16 15 15 15 13 11 10 7 5 4 4 3 3 3 3 3 2 2 2 2 2 2 3 3 3 3 3 3 3 3 3 3 2 2 2 2 2 2 2 2 2 2 2 2 2
13 13 12 11 12 13 14 13 13 13 13 14 15 16 16 15 15 15 15 15 15 15 16 16 17 18 18 17 17 17 17 18 18 18 18 17 17 16 15 15 15 15 15 15 14 13 13 10 7 5 5 5 4 4 4 3 3 3 2 2 2 2 2 2 2 2 2 2 2 2 2 2 2 2 2 2 2 2 2 2 2 2 2 2 1 1
12 12 11 11 12 13 12 12 12 13 14 15 16 16 16 16 16 15 15 16 15 15 15 16 16 17 18 18 17 16 16 17 17 16 16 15 15 16 16 16 15 14 13 13 13 13 12 9 6 5 5 5 5 5 4 4 3 3 2 2 2 2 2 2 2 2 2 2 2 2 2 2 2 2 2 2 2 1 1 1 1 1 1 1 0 0
13 12 11 11 11 12 12 12 13 15 15 15 16 15 15 16 16 15 15 15 16 15 15 15 16 17 17 17 17 17 16 15 15 14 13 13 14 15 15 16 15 14 14 13 13 13 11 8 7 6 6 6 5 5 4 4 3 3 2 2 2 2 2 2 1 1 2 2 2 2 2 2 2 2 1 1 1 0 0 0 0 0 0 0 0 -0
13 12 11 11 11 12 13 13 14 15 15 16 17 16 15 15 16 15 15 15 16 16 15 15 16 16 16 17 17 16 15 14 15 14 13 14 15 15 14 14 14 13 12 11 10 10 9 9 9 8 7 6 5 4 4 3 3 2 2 1 1 1 1 1 1 1 1 1 2 2 2 2 1 1 1 0 0 -0 -0 -0 -0 -0 0 0 0 -0
12 12 12 12 12 12 13 13 13 13 14 16 17 16 16 16 16 16 16 16 17 17 16 16 16 16 16 16 16 15 14 15 15 15 15 15 15 13 13 12 10 8 7 7 7 8 8 8 8 7 6 5 4 4 3 3 2 2 1 1 1 1 1 1 1 1 1 1 1 1 1 1 1 1 1 0 0 0 -0 -0 -0 -0 -0 -0 -0 -0
11 12 12 11 12 12 12 13 13 14 15 17 17 16 16 16 16 16 15 15 17 18 16 15 16 16 16 16 15 15 14 14 15 16 16 15 12 10 10 11 8 4 4 5 6 7 7 6 6 5 5 4 3 3 3 3 2 2 1 1 0 0 0 0 0 1 1 1 1 1 1 1 1 1 1 1 0 0 0 -0 -0 -0 -0 -1 -1 -0
10 11 11 11 12 12 12 13 13 14 15 17 17 15 14 14 15 15 14 15 18 18 16 15 15 15 16 15 14 14 14 15 16 15 12 10 7 5 5 6 6 4 3 3 4 5 5 5 4 4 3 3 3 3 3 3 2 1 1 0 0 0 0 0 1 1 1 1 1 1 1 1 1 1 1 1 1 0 0 -0 -0 -1 -1 -1 -1 -1
10 11 10 11 12 12 12 13 13 14 15 16 15 13 12 13 15 15 15 16 19 18 15 15 16 16 15 15 14 14 14 14 13 10 6 5 6 5 1 0 1 1 1 2 3 4 4 4 4 3 3 3 3 3 3 3 2 1 1 0 0 0 1 1 1 1 1 1 1 1 1 1 1 1 1 1 1 0 -0 -1 -1 -1 -1 -1 -2 -2
11 11 11 11 12 12 12 13 12 14 16 16 12 10 12 15 16 16 15 16 17 17 15 14 16 16 15 15 14 14 13 11 8 6 5 4 5 5 2 0 1 1 1 2 3 3 3 3 2 2 2 3 3 3 2 2 1 1 1 0 0 1 1 1 1 1 1 1 1 1 1 1 1 1 0 0 -0 -1 -1 -1 -1 -1 -1 -2 -2 -2
12 12 12 12 12 12 12 12 12 14 16 14 11 10 13 15 16 17 16 14 13 13 14 13 14 14 13 14 13 11 10 8 6 5 5 3 3 3 2 2 2 1 1 1 1 3 3 1 1 1 1 2 2 2 2 2 1 1 1 1 0 1 1 1 1 1 1 1 1 1 1 1 0 0 -0 -1 -1 -1 -1 -1 -2 -2 -2 -2 -2 -3
13 12 12 13 13 13 12 13 14 14 14 13 14 15 14 14 13 15 17 15 11 10 11 12 13 11 10 12 12 9 9 8 6 4 4 3 3 3 2 2 0 -1 -0 -0 0 2 2 0 -1 0 1 1 2 2 3 3 2 1 1 1 1 1 1 1 1 1 1 1 1 1 0 0 -0 -0 -1 -1 -1 -1 -1 -2 -2 -2 -2 -3 -3 -3
13 13 12 13 13 13 13 14 13 12 10 11 13 14 13 12 10 10 13 15 13 9 9 11 12 9 7 9 10 8 8 7 5 4 4 3 2 2 2 1 -1 -1 -1 -1 -0 1 1 -0 -1 -1 -0 0 1 1 2 3 3 1 1 1 1 2 2 1 1 1 1 1 1 0 0 -0 -0 -1 -1 -1 -1 -1 -1 -2 -2 -2 -3 -3 -3 -3
12 11 11 12 13 13 12 11 10 10 9 10 9 8 8 9 8 8 10 14 13 9 7 9 11 8 5 6 8 8 7 5 4 3 3 2 2 1 1 -0 -1 -2 -1 -1 -1 -1 -1 -1 -1 -1 -1 -0 0 1 1 2 3 2 1 1 1 2 2 1 1 1 1 0 0 0 -0 -0 -1 -1 -1 -1 -1 -1 -1 -1 -2 -2 -2 -3 -3 -3
11 10 11 11 12 12 12 12 12 11 10 10 9 7 7 7 5 6 9 11 10 7 6 7 7 5 4 5 7 7 4 3 3 3 2 2 2 1 1 0 -1 -2 -2 -1 -1 -1 -1 -1 -2 -2 -2 -2 -0 1 1 1 2 2 1 1 1 1 1 1 1 1 0 0 -0 -0 -0 -1 -1 -1 -1 -2 -2 -2 -2 -2 -2 -2 -2 -3 -3 -3
11 10 10 11 11 12 12 12 10 8 7 8 8 8 8 7 6 5 5 6 6 5 4 4 4 4 4 5 5 5 3 2 3 3 2 2 1 1 1 0 -2 -3 -2 -1 -1 -0 -1 -2 -3 -3 -3 -3 -2 0 1 1 1 1 1 1 1 1 1 1 1 1 0 0 -0 -1 -1 -1 -1 -1 -2 -2 -2 -2 -2 -2 -2 -2 -2 -2 -3 -3
10 10 10 11 10 11 11 10 8 7 8 9 7 6 6 6 5 5 3 3 4 4 4 3 3 4 5 4 3 3 3 2 2 2 2 1 1 1 -0 -2 -3 -3 -2 -1 -1 -0 -1 -2 -3 -3 -4 -4 -2 0 1 1 1 1 1 1 1 1 2 1 1 1 1 0 -0 -0 -1 -1 -1 -1 -1 -2 -2 -2 -3 -3 -2 -3 -3 -3 -3 -3
9 10 10 10 10 10 11 11 10 10 12 12 9 7 6 5 4 5 5 5 5 5 4 4 4 3 4 4 3 3 4 3 2 2 2 2 1 1 -1 -3 -3 -3 -3 -2 -1 -1 -2 -3 -3 -4 -5 -4 -2 -1 -0 -0 -0 0 1 1 1 1 2 1 1 1 0 -0 -0 -0 -1 -1 -1 -1 -1 -2 -2 -2 -3 -3 -3 -3 -3 -3 -4 -4
10 11 11 11 11 11 12 12 11 11 13 13 10 8 7 5 4 6 6 6 5 4 4 6 6 5 4 3 3 3 4 4 2 2 2 1 0 -1 -2 -2 -3 -3 -4 -3 -2 -3 -4 -4 -4 -5 -5 -5 -3 -1 -1 -1 -1 -0 0 0 1 1 2 2 2 0 -1 -1 -0 -1 -1 -1 -1 -1 -1 -2 -2 -2 -3 -3 -4 -4 -4 -4 -4 -5
Height
825 827 832 829 826 827 828 830 830 834 837 836 839 840 842 843 839 836 835 838 840 835 831 830 831 828 822 819 815 816 822 822 819 817 815 814 814 813 812 810 808 807 804 804 807 809 809 812 813 815 817 819 820 822 823 825 826 828 830 830 831 832 833 834 835 836 837 838 840 843 844 844 846 848 849 850 851 853 855 857 859 861 862 863 864 864
828 831 829 821 823 826 829 834 835 837 838 837 839 840 843 847 840 833 835 838 840 837 831 831 833 828 822 818 815 817 819 815 812 811 808 808 808 807 805 803 803 802 802 804 806 806 808 809 811 813 815 816 818 819 821 823 824 826 828 828 829 830 832 833 834 835 836 837 838 841 842 843 846 847 848 850 851 853 855 856 859 860 862 863 864 865
834 832 822 820 828 831 833 838 836 836 839 839 843 845 844 846 842 835 837 842 840 836 833 834 834 828 822 819 814 814 813 808 806 805 801 801 800 799 799 799 799 800 800 801 803 804 805 807 808 810 812 813 815 817 819 820 822 824 825 826 827 828 830 831 832 834 835 836 837 840 841 842 845 847 848 849 850 852 854 855 858 860 861 862 863 864
835 827 821 824 828 828 833 839 838 838 840 840 844 845 843 845 843 833 834 842 840 839 837 837 838 830 821 817 809 805 807 806 804 802 799 798 795 792 792 794 795 795 795 797 800 802 803 805 806 807 808 810 812 814 815 817 819 821 822 824 825 827 828 830 831 832 834 835 836 839 841 842 844 846 847 848 850 852 853 854 857 859 860 861 862 864
824 822 827 829 827 825 831 839 838 836 839 841 843 842 839 839 839 835 836 840 839 842 843 839 835 825 817 815 806 802 807 805 800 799 796 793 791 789 790 791 790 790 790 792 795 798 800 801 801 802 804 807 808 810 811 813 815 817 820 822 824 826 827 828 830 831 833 833 835 838 839 841 844 845 845 846 849 851 852 853 856 858 859 861 862 864
822 823 828 828 829 829 830 835 835 833 836 838 837 835 833 831 834 838 840 840 838 840 844 843 835 821 815 814 806 804 806 797 792 793 789 785 786 787 788 786 785 786 787 788 790 793 796 797 798 800 802 803 804 805 807 810 813 815 818 820 822 824 825 827 828 830 832 832 834 836 837 839 842 843 843 845 848 849 850 853 855 857 859 860 861 863
823 825 825 824 829 831 831 834 834 833 836 838 834 832 833 834 837 840 841 842 841 839 845 848 840 830 820 808 802 804 802 793 788 786 782 781 781 782 783 781 781 783 783 785 787 789 792 793 796 797 797 799 800 802 806 809 812 814 816 818 820 822 823 825 826 828 830 831 833 834 836 838 839 840 842 845 847 848 849 852 854 857 858 860 861 862
820 824 827 825 827 831 833 831 830 833 834 835 836 836 834 836 838 840 842 843 843 844 847 847 844 843 831 809 804 806 802 797 792 785 780 777 776 776 777 777 777 779 780 782 784 786 788 789 790 791 792 795 798 802 805 807 810 812 814 817 819 820 821 823 825 826 828 829 831 833 834 837 837 838 840 843 846 847 849 851 853 856 857 859 860 861
817 818 822 822 824 829 828 823 825 829 828 832 841 842 837 838 839 841 844 845 852 852 843 841 845 844 827 808 808 811 804 797 788 780 776 772 772 772 772 772 774 776 777 779 780 782 784 784 786 788 791 795 798 800 803 805 808 810 813 815 817 819 820 822 824 825 827 829 830 832 833 835 836 838 840 841 843 846 848 850 852 854 856 857 859 861
819 820 820 819 820 821 822 826 829 824 824 835 845 842 840 844 844 846 845 843 854 853 836 834 841 837 819 802 803 809 804 794 781 775 773 770 770 771 770 772 773 775 777 777 778 779 781 783 785 788 791 794 796 799 801 804 807 809 811 813 814 816 818 820 822 824 826 828 829 830 831 833 835 836 839 840 842 845 847 849 850 853 854 856 858 860
821 825 823 819 817 817 821 833 837 829 830 837 837 833 836 842 842 848 850 847 852 844 826 827 831 830 824 807 797 795 790 783 775 771 771 768 765 766 770 773 773 774 776 777 778 779 781 783 785 788 790 792 795 798 800 802 805 807 808 810 811 814 816 817 820 821 823 826 827 829 830 831 833 834 837 838 840 843 845 847 849 851 853 855 857 859
821 822 821 818 819 819 820 830 837 838 838 834 828 829 835 839 842 847 850 852 852 836 825 835 835 832 828 807 792 788 781 778 775 771 768 763 759 760 766 772 773 775 775 776 778 779 781 783 784 787 788 791 794 796 798 800 803 805 806 808 809 811 813 815 817 819 821 823 825 827 828 830 831 832 834 835 837 841 844 846 848 850 852 854 856 857
818 817 818 818 820 819 815 825 837 839 838 832 829 834 840 846 849 846 848 858 854 836 834 844 839 833 822 797 788 788 778 774 775 774 770 764 759 758 764 771 772 774 776 776 778 779 780 781 782 784 786 788 791 793 796 798 801 803 804 806 808 809 811 813 815 817 818 820 822 824 826 828 829 831 832 833 835 838 841 844 847 848 850 852 853 855
818 816 817 815 816 814 810 817 827 831 834 833 829 832 838 848 853 846 850 859 847 831 837 847 839 828 813 789 779 777 769 767 769 771 770 767 764 761 763 770 772 774 775 775 777 778 778 779 780 782 783 785 788 790 794 796 799 801 803 805 806 808 810 811 813 815 817 818 820 822 824 825 828 829 830 832 833 836 839 842 844 846 848 850 851 853
819 812 808 808 807 807 805 805 808 817 829 830 825 827 829 833 835 832 834 836 828 826 837 844 833 812 794 778 773 772 770 770 768 767 769 768 767 767 767 769 769 771 773 774 776 776 777 778 778 780 782 783 785 788 791 794 796 798 800 802 804 806 809 810 812 814 815 817 819 821 822 824 826 828 829 831 832 834 836 839 842 845 847 849 850 853
818 805 799 803 802 801 802 801 803 812 825 831 829 828 825 820 817 824 836 838 838 838 835 831 818 796 782 773 771 773 769 767 767 768 769 764 763 767 768 766 766 766 770 773 774 775 776 777 778 779 780 782 784 786 788 790 792 794 796 799 802 804 806 808 810 812 814 816 817 819 821 823 825 827 828 829 831 833 835 837 840 843 845 848 850 852
813 806 804 808 804 804 805 802 804 806 813 827 831 824 822 821 814 821 841 853 855 843 821 811 803 789 784 773 762 764 763 759 761 763 763 758 758 764 763 762 763 764 767 770 772 773 774 775 776 777 778 780 782 783 785 787 789 791 793 795 798 801 803 806 808 810 812 814 816 818 820 822 824 825 826 828 830 832 835 837 839 841 844 846 848 850
798 801 807 810 805 809 813 807 807 808 809 820 824 817 819 825 820 820 831 841 851 843 817 807 801 789 786 775 762 764 764 759 758 758 757 756 757 760 757 757 761 763 766 768 770 772 772 773 774 775 776 778 779 781 783 785 788 790 792 793 795 797 799 802 804 807 810 812 814 816 818 821 822 824 826 828 830 832 834 837 838 840 842 844 847 849
792 796 807 817 812 810 813 808 808 814 813 813 813 812 814 819 821 827 830 827 834 836 816 805 806 796 786 774 761 758 757 753 751 753 754 753 754 756 752 752 757 761 764 766 767 769 770 771 772 773 775 776 778 780 782 785 787 789 791 792 794 795 796 799 802 805 808 810 812 814 816 819 821 823 825 826 829 831 832 835 837 839 841 843 846 848
792 794 802 817 817 811 812 809 807 812 815 815 814 814 814 814 816 822 826 822 821 823 813 803 795 781 773 767 755 749 749 745 742 744 748 748 749 752 750 749 754 758 760 761 764 767 767 768 770 770 773 774 776 779 781 783 785 787 789 791 792 794 795 798 800 802 805 807 809 812 814 816 819 821 823 825 827 829 831 833 835 838 840 842 844 847
792 794 798 814 821 814 808 802 798 800 806 810 811 815 815 817 820 819 822 822 817 816 820 815 791 762 756 758 747 741 743 742 740 741 743 743 745 749 750 750 753 755 757 759 761 763 764 766 768 769 771 773 775 778 779 781 782 783 786 788 790 792 793 795 797 799 802 804 806 809 811 813 816 818 821 823 825 827 829 831 833 836 839 841 843 845
789 792 798 811 817 807 798 796 797 795 794 795 798 801 801 805 814 816 819 823 821 815 816 819 796 754 744 752 745 737 739 744 747 743 739 739 742 748 750 751 754 754 754 759 760 761 763 763 765 767 769 771 773 775 776 777 779 781 783 785 788 790 791 793 795 797 799 801 804 806 808 810 813 815 818 820 822 825 826 829 832 834 837 839 841 844
781 787 794 803 805 800 796 801 807 803 795 795 795 793 792 795 798 801 806 814 821 819 814 822 807 757 739 753 751 740 741 748 752 747 742 740 738 744 751 752 753 754 755 759 760 760 762 762 763 765 766 768 769 771 773 775 777 778 780 783 785 787 789 791 793 795 797 799 801 803 806 808 810 812 815 817 819 822 824 827 830 832 834 837 839 842
780 786 790 794 796 796 797 800 805 806 801 798 798 796 795 794 790 791 797 800 807 808 806 821 811 760 741 756 755 749 750 751 752 749 749 748 739 741 749 750 750 752 755 758 759 760 761 761 763 763 764 765 766 768 770 772 774 776 778 780 782 784 786 789 792 794 796 798 799 802 804 805 808 809 812 814 816 819 822 825 827 830 832 835 837 840
778 784 786 792 796 796 798 798 799 802 803 798 795 797 793 790 793 797 799 802 801 793 791 804 794 756 745 753 751 751 752 746 747 746 746 748 741 740 746 748 749 751 753 756 757 759 761 760 760 760 760 761 762 764 767 768 771 773 775 778 779 782 784 787 789 792 793 796 798 800 802 803 805 807 809 812 814 817 820 823 825 828 830 833 835 838
769 774 777 787 793 790 786 783 782 789 802 800 794 794 792 791 795 794 796 804 798 785 785 787 771 750 747 748 744 746 746 739 742 745 744 745 743 742 744 745 746 749 751 753 755 757 759 759 758 757 758 758 759 761 763 765 768 770 772 774 776 778 781 784 787 789 791 794 796 798 800 802 804 806 809 811 814 816 819 821 824 826 829 831 834 837
765 766 766 770 773 769 762 763 769 777 789 793 788 790 792 792 792 790 794 797 786 782 784 771 756 751 749 747 744 743 743 738 737 741 743 742 741 742 743 741 743 747 750 752 754 755 756 756 755 755 755 756 757 759 760 762 764 766 768 770 773 775 778 781 784 787 789 791 794 796 798 800 803 805 808 810 813 816 818 820 823 825 828 830 833 836
766 766 764 762 760 754 747 757 770 769 771 777 780 785 789 790 792 793 789 777 771 781 775 753 754 758 746 742 745 741 740 739 736 737 738 736 736 739 740 740 741 745 749 751 752 753 753 752 752 752 752 754 756 757 758 759 761 763 765 767 770 772 775 777 780 783 786 789 791 793 796 798 801 804 806 809 812 814 817 819 821 824 827 830 832 835
764 763 760 760 760 752 746 757 768 764 761 767 771 776 781 786 791 789 779 765 764 773 758 740 752 754 735 735 742 738 736 735 731 732 733 735 737 736 736 736 735 739 744 745 745 748 749 748 747 748 750 751 753 753 754 756 757 760 762 764 768 770 772 775 777 780 783 785 787 790 793 796 799 802 805 807 810 812 815 818 821 823 826 828 831 834
761 760 758 758 761 756 751 757 764 763 762 765 767 769 773 779 782 777 768 759 761 765 751 743 753 745 728 730 735 733 734 732 730 732 733 734 734 731 731 733 732 734 738 739 739 742 744 744 744 746 747 748 748 748 749 751 752 755 758 761 764 767 770 772 774 777 779 782 784 787 791 794 797 800 803 805 808 811 813 816 819 822 825 827 829 832
763 762 758 759 765 762 753 753 760 762 762 762 764 768 769 771 770 765 759 759 766 767 753 751 757 743 724 725 729 731 734 733 732 733 731 731 730 728 730 730 731 732 733 734 736 737 740 741 742 743 743 742 742 743 745 746 748 752 754 757 760 763 766 769 771 774 776 779 783 786 789 792 795 799 801 804 807 809 812 815 818 821 824 826 828 830
763 766 763 764 771 764 751 750 757 760 763 765 765 764 763 760 756 755 757 758 760 759 755 759 759 737 720 723 728 728 731 732 730 729 729 728 728 729 728 727 728 730 729 730 731 732 735 737 737 738 737 736 737 739 741 743 746 749 751 754 757 760 764 767 769 772 775 778 782 785 787 790 793 797 800 802 805 808 810 813 815 818 822 824 826 829
759 765 768 771 772 761 749 752 758 762 769 767 756 745 743 745 748 752 755 751 747 748 751 752 740 720 716 726 727 726 730 729 726 724 724 724 725 727 728 727 727 727 726 726 726 727 730 730 730 731 729 730 733 734 737 741 744 746 749 752 756 759 763 766 768 771 774 777 780 783 786 789 791 794 797 799 802 805 807 809 811 814 818 821 824 826
756 759 767 773 768 757 753 757 761 764 761 745 729 723 727 735 743 747 744 737 737 740 738 732 723 714 716 723 722 724 726 723 720 718 717 719 722 725 726 725 725 723 722 722 723 724 725 725 725 725 725 727 730 732 736 739 741 744 748 751 755 757 761 764 767 770 773 775 778 780 783 786 789 791 794 796 799 802 804 807 809 811 814 817 821 823
754 757 765 771 766 759 759 763 761 753 739 723 716 718 721 724 729 733 730 726 730 736 735 731 724 715 711 713 717 720 720 717 718 717 717 720 721 721 721 720 719 720 720 721 721 721 721 721 721 722 723 725 728 730 733 736 738 742 746 749 752 755 758 761 765 768 771 774 776 778 781 784 786 789 791 794 797 800 803 805 808 810 812 814 817 820
748 754 760 764 763 759 758 759 748 731 721 719 717 717 719 720 722 730 732 726 724 728 731 728 720 709 706 709 713 715 717 719 720 717 717 721 720 718 717 714 714 717 717 717 718 717 717 718 719 720 722 723 725 727 729 732 736 740 743 747 750 753 756 759 762 765 768 771 774 777 779 781 784 787 790 793 796 798 801 804 806 808 811 813 816 819
741 748 754 757 755 750 747 744 735 727 724 717 707 705 709 710 712 721 727 719 711 714 719 718 712 707 705 706 709 714 719 722 719 712 712 717 714 712 712 711 712 714 714 714 716 715 716 717 717 718 719 721 723 725 727 731 735 738 742 746 749 752 755 757 760 763 766 769 772 775 778 781 784 787 789 792 795 797 800 802 805 808 810 812 815 817
736 740 745 748 746 744 743 739 735 735 728 707 692 692 697 699 702 709 716 711 700 699 705 706 705 705 704 704 708 714 720 723 716 705 704 709 708 708 711 711 712 714 714 714 715 714 714 715 715 717 718 719 722 725 728 731 735 738 742 745 748 752 754 756 758 761 764 767 770 774 777 781 784 787 789 792 794 796 799 801 804 807 809 812 814 816
737 736 738 742 741 740 740 735 729 725 712 692 685 689 695 698 700 708 722 715 691 683 692 699 701 702 701 702 706 711 720 724 713 699 700 706 708 710 712 711 713 714 714 713 713 713 714 714 715 716 717 719 722 725 728 731 734 738 741 744 748 751 754 756 758 761 764 767 770 773 776 779 783 785 788 791 794 796 798 801 803 806 808 811 814 816
738 737 738 739 734 731 732 726 719 714 701 687 686 693 699 699 698 713 728 710 676 671 686 694 697 697 694 696 705 711 715 712 703 698 704 709 711 714 714 713 714 715 714 714 714 713 714 714 715 716 718 720 722 725 728 731 734 738 741 744 748 751 753 756 758 761 764 767 769 773 775 778 782 784 787 790 793 796 798 800 803 805 807 810 812 814
731 731 731 731 726 724 724 719 713 707 694 685 690 697 700 701 703 710 707 684 665 671 682 685 687 688 687 692 700 703 701 699 700 704 711 713 713 714 716 716 716 715 715 715 714 714 715 715 716 718 719 721 724 726 729 732 735 739 742 745 748 750 752 755 758 761 764 766 769 772 775 778 781 784 787 790 793 796 798 800 802 803 806 808 810 812
720 722 722 722 720 718 716 713 712 701 683 681 696 704 701 698 698 692 680 671 670 674 678 681 681 681 683 687 692 693 694 700 706 710 712 714 714 715 717 717 716 716 715 715 714 714 715 716 718 720 722 724 726 729 731 734 737 741 744 747 749 752 754 757 759 762 764 767 770 773 775 779 782 784 787 790 792 795 797 799 800 802 804 807 808 811
703 708 709 709 709 711 713 713 710 695 677 677 695 703 696 686 678 671 669 676 682 679 679 682 681 681 684 686 688 693 698 703 709 710 712 715 715 716 717 716 716 716 715 715 715 715 715 717 720 722 724 726 728 730 733 736 738 741 744 747 750 752 755 757 760 762 765 767 770 773 775 778 781 784 786 789 791 793 795 797 799 801 803 805 807 809
690 694 695 692 691 697 700 694 686 679 675 674 677 681 680 675 673 671 669 673 682 686 684 682 682 686 689 686 689 697 700 703 708 710 712 714 715 715 717 716 716 717 716 716 717 717 717 719 721 724 726 728 730 732 734 736 738 741 744 747 749 752 754 757 759 762 764 767 769 772 775 777 780 782 785 787 789 792 794 796 798 800 802 803 805 807
682 683 685 683 679 679 679 676 674 678 681 678 673 672 673 675 679 681 675 670 676 685 686 682 682 689 693 691 693 698 699 702 708 710 710 712 714 716 717 717 718 718 718 719 719 719 720 721 723 726 729 731 733 734 736 738 739 741 744 747 749 751 754 756 759 761 764 766 768 771 773 776 779 781 783 786 788 790 792 794 796 798 800 802 804 806
682 684 685 684 680 676 676 679 682 683 682 680 681 684 683 681 682 683 679 674 675 681 685 683 682 688 694 694 693 696 700 704 708 710 711 713 715 717 717 718 719 720 720 720 721 722 723 724 726 728 730 733 736 737 738 740 741 742 745 747 749 752 754 756 759 761 764 766 768 771 773 776 778 780 783 785 787 789 791 793 795 797 799 801 803 805
682 684 685 684 682 679 678 676 677 680 681 682 684 686 685 685 687 686 681 677 678 683 686 686 686 690 694 694 692 696 702 705 707 710 712 714 715 718 719 719 720 720 721 721 722 724 725 725 728 730 732 735 737 738 739 741 742 744 746 748 750 752 754 757 759 761 764 766 768 771 773 775 778 780 782 785 787 789 791 793 795 797 798 800 802 804
674 679 683 682 680 679 677 676 680 686 687 686 686 685 684 685 687 687 686 684 683 686 687 688 689 691 693 694 695 697 702 706 707 708 711 714 716 718 719 720 721 721 722 722 723 724 725 726 728 731 733 735 738 739 740 741 743 745 747 748 750 753 755 757 759 761 763 766 768 770 773 775 777 779 782 784 786 788 790 792 794 796 797 799 801 803
674 678 679 678 679 680 677 677 685 687 682 679 683 686 686 687 687 687 688 687 685 686 688 689 691 691 692 694 697 698 701 706 707 707 710 713 715 718 719 720 720 721 722 723 724 725 725 727 729 732 734 737 739 740 740 742 743 745 747 749 751 753 755 757 759 761 764 766 768 770 772 775 777 779 781 783 785 787 790 791 793 795 797 798 800 801
676 676 675 677 681 679 670 668 674 674 666 665 674 680 684 687 687 686 686 685 685 686 687 688 691 694 694 695 697 697 699 703 707 708 709 712 714 717 718 719 720 721 722 723 725 726 727 729 731 733 735 738 740 741 741 743 744 746 748 750 751 753 755 757 759 761 764 765 768 770 772 774 776 778 780 782 784 786 788 790 792 794 795 797 798 800
670 668 669 670 670 666 660 662 667 666 660 659 667 674 678 682 684 683 682 682 684 686 686 686 688 692 695 697 698 698 698 701 706 708 709 712 715 716 718 719 720 721 724 725 726 728 730 732 734 735 737 739 741 742 743 744 745 747 749 750 752 754 755 756 758 761 763 765 767 770 771 773 775 777 779 781 783 785 787 789 791 792 794 795 797 798
Wind_Speed
3 3 2 5 7 7 8 7 6 5 6 6 5 3 3 3 5 5 4 6 2 2 6 7 7 11 11 11 12 6 2 5 9 9 10 10 8 9 10 11 12 12 12 10 12 18 21 24 25 24 23 22 21 20 17 17 19 20 21 23 24 25 25 27 27 27 28 29 27 25 23 24 25 25 25 24 22 20 18 17 16 14 14 15 17 19
4 4 7 10 8 7 6 6 6 6 5 5 4 1 2 3 6 6 3 4 1 2 5 4 5 11 12 12 12 6 3 8 10 11 12 12 11 10 11 14 12 10 7 5 10 15 19 23 25 25 25 25 24 22 21 21 21 22 23 25 27 27 27 28 28 28 29 29 27 26 24 25 24 23 24 23 22 20 18 17 16 18 18 17 19 19
3 4 12 8 5 6 5 6 7 6 5 4 3 2 2 3 4 6 3 5 2 3 4 5 5 10 12 12 12 10 10 10 10 11 13 12 12 12 12 12 11 9 8 7 8 12 18 23 24 26 27 27 26 24 23 23 23 24 25 26 28 28 29 29 29 30 29 27 27 27 26 26 25 23 23 22 21 20 19 17 17 21 19 19 22 20
2 6 10 5 8 7 5 5 7 6 3 3 4 3 3 3 1 4 4 4 1 1 2 4 6 8 10 11 13 12 10 8 9 12 13 12 13 15 12 9 10 12 12 10 8 10 16 20 24 27 28 28 27 25 25 26 26 27 27 28 29 29 30 29 29 30 29 27 27 26 26 26 25 23 22 21 20 21 20 18 19 21 20 21 22 20
5 6 2 5 8 8 6 4 7 5 3 3 5 6 4 5 6 6 4 4 3 3 2 3 6 7 6 8 11 8 4 6 8 10 13 13 13 13 10 9 11 12 11 10 10 10 13 19 24 28 28 28 28 28 28 29 29 29 29 29 29 29 29 30 30 30 28 27 27 26 26 25 22 22 23 22 22 22 20 18 20 21 21 23 22 20
7 5 4 6 4 6 7 4 6 7 4 4 5 9 10 8 7 4 3 5 4 4 3 2 3 6 4 6 10 6 6 8 7 7 12 14 11 9 9 12 12 10 10 10 10 11 14 19 23 25 27 28 30 31 30 30 29 29 29 30 30 29 30 30 31 31 28 27 28 28 28 26 23 22 23 24 24 23 20 20 22 23 22 23 22 22
4 2 5 6 5 5 6 3 6 7 5 3 5 8 10 7 4 3 1 2 1 4 3 2 1 6 6 7 10 6 6 11 10 10 13 12 10 8 9 10 10 9 9 8 8 9 13 18 21 23 28 31 32 30 28 28 28 28 29 30 30 30 31 32 32 31 30 29 31 31 30 29 27 25 25 25 24 23 22 23 23 23 23 24 24 26
4 3 3 6 6 5 5 4 6 8 7 3 4 5 7 6 6 5 5 3 3 3 4 2 3 3 7 8 7 4 7 11 12 14 15 12 11 10 9 10 9 9 8 7 8 9 12 18 23 26 30 31 30 27 26 27 28 28 28 30 30 30 31 32 32 32 31 31 31 30 29 29 29 28 27 27 24 23 24 25 25 25 26 26 27 28
4 7 7 7 5 4 6 5 8 11 6 4 3 6 6 6 5 5 6 3 1 3 5 1 4 2 7 6 4 2 4 9 12 15 15 13 12 10 10 9 8 8 7 8 9 10 12 18 24 26 26 27 27 26 27 29 29 28 28 29 30 30 31 32 32 32 31 30 29 29 30 29 28 27 28 27 26 25 25 26 26 27 28 29 30 31
1 5 7 7 5 6 4 2 7 10 4 3 5 7 6 6 5 5 4 3 3 3 8 6 6 3 6 5 1 2 3 7 11 12 12 12 11 9 9 8 6 5 5 7 7 8 12 17 22 22 22 25 26 26 27 28 28 28 29 29 31 31 31 32 32 32 31 30 30 31 32 31 28 26 27 27 26 27 27 27 28 30 31 31 31 32
1 1 2 3 4 5 4 3 1 5 5 5 6 6 6 6 5 4 2 4 3 6 8 7 11 7 5 3 4 4 5 7 9 9 8 9 10 8 6 6 6 5 4 5 5 5 9 14 18 20 22 24 26 26 26 27 29 30 30 31 32 32 33 33 33 33 33 32 32 32 32 31 30 29 29 29 29 29 29 30 31 31 32 32 32 32
3 1 2 2 2 4 7 5 4 3 4 5 5 5 4 3 4 4 4 4 1 6 5 2 7 9 7 6 5 6 7 8 9 8 9 10 10 8 5 5 5 4 4 4 4 5 7 9 14 19 21 23 25 26 26 28 30 31 31 32 32 32 34 34 34 34 34 34 33 32 32 32 32 32 31 31 32 32 32 32 33 32 33 33 33 33
2 4 3 3 1 4 6 5 5 4 2 4 4 6 3 2 3 3 3 0 3 7 3 1 1 4 8 9 8 10 12 12 10 9 10 11 10 9 6 5 4 3 4 4 4 5 6 7 12 18 21 23 26 27 27 28 29 30 31 32 33 33 34 34 35 34 34 34 34 34 33 33 33 32 31 32 33 35 36 35 35 35 35 35 36 37
3 5 2 1 2 3 7 6 3 1 3 5 5 6 4 2 1 3 4 1 4 6 3 1 1 3 5 6 11 17 17 14 11 10 11 11 11 10 7 5 4 4 4 5 5 6 6 8 12 17 21 23 25 27 28 28 29 30 30 32 33 32 32 33 34 34 34 34 34 34 35 34 33 32 31 33 35 38 38 37 37 37 38 39 39 39
5 6 5 7 3 6 10 8 6 6 5 5 4 5 5 5 5 4 4 3 5 5 3 3 2 3 4 4 8 12 11 10 9 9 9 9 10 8 7 6 6 6 5 5 5 6 7 9 14 17 20 23 25 27 28 29 30 31 31 32 32 31 32 33 33 34 34 34 34 34 34 34 33 32 32 34 37 39 39 38 39 39 40 41 40 40
6 8 6 3 1 10 11 5 5 7 3 2 3 5 3 5 5 2 3 5 2 3 4 3 4 5 5 6 8 7 8 8 8 8 7 11 11 6 6 8 7 7 5 5 6 6 6 10 15 17 20 22 24 26 28 30 31 32 32 33 33 32 33 33 34 34 34 34 34 34 33 33 32 32 33 36 38 39 39 39 40 41 42 42 41 40
3 5 5 3 1 5 6 2 4 3 3 2 3 4 4 4 6 2 2 1 4 2 5 3 4 5 3 7 9 7 9 9 8 7 8 11 10 5 7 8 7 7 6 5 6 6 6 10 15 18 21 23 25 27 29 31 32 34 34 34 34 33 33 34 34 34 34 34 34 33 33 32 33 34 35 37 38 38 38 39 41 43 43 43 42 41
5 4 4 1 1 2 1 2 3 3 3 6 4 6 2 2 3 3 1 3 4 2 5 2 5 5 2 5 6 2 8 12 11 10 10 11 8 6 8 8 7 7 6 5 6 6 7 10 14 18 22 24 26 28 29 31 32 32 33 35 35 35 35 36 35 35 34 34 33 33 33 33 34 35 36 37 37 36 38 40 42 44 44 44 43 42
4 3 5 2 2 3 4 3 2 4 2 5 4 4 4 2 2 2 2 2 1 3 5 4 4 4 5 6 3 4 9 11 13 12 11 12 10 8 9 9 6 5 5 5 6 6 6 9 14 18 21 23 26 27 28 29 30 30 31 32 34 35 36 36 36 35 34 34 34 34 34 34 35 36 37 38 37 37 39 42 44 44 45 44 44 43
3 3 4 2 1 2 3 2 5 2 2 3 2 2 2 2 4 3 3 3 3 3 4 4 4 4 7 7 7 10 11 10 12 11 10 11 10 8 8 8 6 5 6 6 6 6 6 9 15 19 22 24 26 27 27 27 29 30 31 31 32 33 34 35 35 34 34 35 35 35 34 35 36 38 38 38 37 38 40 44 46 46 45 45 44 43
2 4 4 3 3 1 2 4 8 9 6 4 4 4 3 1 2 1 1 2 4 3 2 3 6 8 6 5 9 12 11 11 12 9 8 9 8 8 8 6 5 5 6 6 6 7 7 9 14 18 21 23 24 25 26 28 30 31 31 32 32 32 33 34 35 35 36 36 36 36 36 37 38 39 39 38 38 39 41 45 47 47 46 45 44 44
3 3 4 1 0 4 5 4 5 8 8 8 7 8 9 6 4 3 3 1 2 2 4 3 7 11 5 4 8 10 7 8 8 7 8 9 7 7 6 6 6 6 6 6 6 6 6 8 13 17 20 21 23 25 28 29 30 31 32 32 32 32 33 34 36 36 36 36 37 37 37 38 39 39 39 39 38 39 42 45 47 47 46 45 45 45
3 3 3 3 4 6 6 3 1 4 4 3 4 6 7 7 7 6 5 3 2 1 2 3 4 10 3 3 5 5 4 5 5 5 7 9 7 7 7 5 5 5 5 5 6 5 6 9 13 17 19 22 24 26 28 29 30 31 32 33 33 33 33 34 36 37 36 37 37 37 37 37 39 39 39 40 40 40 43 45 47 47 46 46 46 45
2 2 3 2 3 3 5 5 2 1 0 2 4 2 4 6 5 5 5 4 4 4 3 3 5 9 3 1 3 3 2 4 4 5 5 9 7 6 7 6 4 5 5 5 5 4 5 9 12 14 17 21 23 25 28 29 30 30 31 32 33 34 34 34 35 36 36 37 37 37 37 38 38 39 40 40 41 41 43 45 47 47 46 46 46 45
4 4 5 3 2 3 4 4 2 1 2 3 4 3 5 7 5 3 1 2 2 8 9 6 8 8 3 3 2 2 3 4 6 5 6 6 8 6 6 5 3 4 4 4 5 4 5 8 9 12 16 20 23 25 27 29 30 31 31 32 33 33 33 34 35 36 36 36 36 36 37 37 38 39 39 40 40 41 43 45 46 46 46 45 45 44
6 5 7 7 7 8 7 5 5 4 3 2 3 5 6 8 9 6 2 3 6 9 9 8 11 7 3 6 5 3 3 3 6 6 3 5 8 8 7 5 4 4 5 6 6 5 7 7 8 12 16 20 23 25 26 28 30 31 32 32 33 33 34 34 35 36 36 35 35 35 35 36 37 38 38 38 39 40 42 44 45 45 45 44 44 44
3 4 9 11 12 13 11 6 4 8 7 6 8 9 9 9 11 9 4 6 8 4 5 13 16 12 7 4 4 5 5 5 5 6 6 6 8 8 8 6 5 5 5 5 5 6 7 8 9 12 16 20 22 24 26 28 30 32 32 33 33 33 34 35 35 35 35 34 34 34 35 36 36 37 37 38 38 39 41 43 44 44 44 43 43 43
2 3 9 13 14 17 14 7 7 10 11 13 13 12 12 11 11 11 12 15 9 4 10 16 12 15 18 10 7 8 6 6 6 6 8 8 7 7 7 6 5 5 5 5 6 8 9 10 10 10 15 18 20 23 26 27 29 32 33 33 33 33 34 35 35 35 35 34 34 35 35 35 35 36 37 37 38 38 40 42 42 42 42 41 42 42
3 4 8 10 13 18 17 8 10 10 9 12 14 15 15 14 15 16 20 23 14 8 17 15 10 15 22 13 11 11 8 8 9 8 7 5 5 7 7 6 6 6 6 7 9 10 10 11 10 9 13 17 20 23 25 27 29 30 32 32 33 33 33 34 35 35 35 34 35 35 34 34 35 35 36 36 37 37 38 39 39 40 40 40 41 41
3 6 8 9 10 16 18 10 10 10 7 7 11 15 16 17 19 22 24 26 19 14 21 17 9 17 20 10 10 11 9 9 8 6 5 4 7 9 8 7 8 8 8 9 10 11 11 11 9 8 11 16 21 25 26 28 29 30 31 32 32 33 33 33 34 35 35 35 35 34 33 33 34 34 34 34 35 36 37 37 37 37 38 39 40 41
3 6 7 7 7 11 18 15 10 10 9 9 9 10 13 18 23 26 24 20 14 15 22 20 15 19 14 6 8 8 7 8 8 9 9 9 10 10 8 9 9 9 10 10 11 11 9 9 8 8 11 18 24 26 27 28 28 29 30 31 32 34 34 34 34 35 35 34 33 32 31 32 32 32 32 33 34 35 35 36 36 36 36 38 39 39
4 3 2 3 5 11 17 18 13 10 10 11 11 11 17 20 21 19 16 14 14 17 21 18 16 18 9 6 7 7 8 9 11 12 12 11 10 10 11 12 11 10 11 11 11 10 9 9 10 10 14 20 24 26 28 27 26 27 29 30 31 33 33 34 34 33 32 31 30 29 30 31 31 31 32 33 33 34 35 36 36 36 36 37 38 39
6 4 2 3 5 12 17 14 9 7 7 10 14 20 23 21 16 11 11 17 20 18 16 14 16 20 10 5 7 9 8 10 13 12 12 12 11 10 11 11 11 11 12 12 11 11 10 10 11 14 18 21 23 26 28 27 26 27 28 28 29 30 31 32 32 31 30 29 29 29 30 30 31 32 33 34 35 36 36 37 37 38 38 38 38 38
7 7 5 4 4 9 11 5 4 6 9 10 13 19 22 20 17 16 17 22 21 16 14 14 15 19 14 8 11 11 9 11 13 12 12 10 8 8 9 10 11 12 12 11 10 10 9 9 11 16 19 19 20 22 23 24 26 26 25 26 28 29 30 31 30 29 29 28 29 29 30 31 32 33 34 35 35 36 36 37 37 38 38 38 37 37
8 8 5 3 3 4 2 5 5 8 10 8 5 8 14 18 20 22 23 23 19 15 16 17 19 22 20 15 11 9 10 11 10 10 10 7 5 7 9 11 12 11 11 10 10 10 10 10 11 14 15 16 17 19 21 24 26 24 24 26 28 29 30 30 29 29 29 28 28 29 30 31 32 33 33 34 34 34 34 34 35 35 35 35 35 35
9 7 4 3 3 2 2 5 8 6 3 5 5 3 6 10 15 16 17 19 18 16 17 20 24 27 24 18 12 9 8 6 7 9 8 6 7 9 10 12 11 9 10 10 10 12 11 11 12 14 15 16 18 20 22 24 25 24 24 25 27 28 29 29 29 28 29 28 28 29 30 31 32 32 31 31 31 31 32 32 32 32 32 33 32 32
10 7 4 4 5 5 5 7 7 6 7 9 11 6 6 9 12 13 12 16 18 18 18 20 24 26 23 19 15 8 2 3 10 9 7 9 12 13 12 12 9 8 9 8 9 11 11 11 12 13 14 15 18 20 21 22 23 24 24 24 26 27 27 28 28 28 28 28 28 29 29 29 29 29 28 28 29 29 30 30 30 30 30 30 31 31
9 9 8 7 5 5 7 7 6 5 8 15 14 7 8 10 11 13 10 12 13 16 19 21 23 23 19 18 14 4 4 2 12 10 7 10 11 9 8 9 6 5 7 7 8 10 9 9 10 10 13 15 16 18 19 21 23 24 23 24 25 25 26 26 27 27 27 27 27 27 27 27 27 27 27 28 28 29 29 28 28 28 29 29 29 29
11 9 9 8 5 5 7 8 7 7 9 14 11 6 9 10 10 10 6 10 14 16 17 17 19 19 18 18 13 4 5 6 13 10 6 7 4 3 4 5 3 3 4 5 6 7 6 7 8 10 13 15 17 18 20 22 24 24 23 23 24 23 23 24 25 25 26 26 26 26 26 26 27 27 27 27 27 28 27 27 26 27 27 27 27 28
12 8 8 8 7 8 9 8 6 5 8 11 6 5 7 10 14 11 5 11 13 11 12 14 16 18 18 16 9 6 7 11 11 6 3 4 1 3 2 1 2 2 2 1 1 3 6 10 12 14 15 16 18 19 21 23 24 23 22 22 22 22 22 23 24 24 24 24 24 25 25 25 26 26 26 26 26 25 25 25 25 26 26 27 27 27
11 9 8 8 10 11 11 9 5 4 8 9 5 7 7 10 11 8 11 9 5 7 11 15 17 18 17 13 8 8 10 8 4 2 3 3 3 3 3 3 3 3 4 6 7 9 11 12 13 14 14 16 18 20 21 23 22 20 19 20 20 21 22 22 22 21 22 22 23 23 23 24 24 24 24 24 23 23 24 24 25 25 26 26 27 27
8 7 7 9 10 10 10 9 6 6 7 5 5 5 7 8 7 9 8 1 3 8 10 12 15 15 13 11 9 9 6 2 4 4 4 4 4 3 2 3 5 6 8 9 11 13 15 14 14 14 13 14 18 19 21 22 20 18 18 18 18 18 18 17 18 19 19 20 20 21 21 21 22 22 21 22 22 22 23 23 24 24 24 25 26 26
8 6 6 7 8 6 7 8 7 8 7 10 12 3 5 8 7 6 3 2 1 6 8 8 9 9 8 8 7 5 4 4 4 5 5 4 4 4 3 4 5 6 8 10 11 14 17 18 16 16 16 15 18 19 20 20 19 18 17 16 15 15 15 15 17 17 18 19 19 20 20 20 20 20 20 21 22 22 22 22 22 23 23 24 25 25
7 7 6 6 7 7 8 9 7 5 5 12 13 7 9 9 4 3 4 2 1 3 6 6 6 5 6 7 6 5 5 5 5 5 5 5 4 4 4 4 5 6 8 11 12 15 19 20 18 18 17 16 17 18 19 19 19 18 17 15 14 15 15 15 16 17 18 19 19 18 18 18 19 19 19 20 20 20 21 21 21 22 22 23 24 25
6 5 3 4 5 5 5 6 3 1 3 6 5 3 6 4 1 3 5 4 3 4 4 5 6 5 5 6 7 5 4 4 5 5 5 5 5 5 5 5 6 8 10 12 13 15 19 20 20 20 19 16 16 17 16 17 18 19 17 15 14 15 15 16 16 17 17 18 17 17 17 17 17 18 18 18 19 19 20 20 20 21 22 22 23 24
4 3 2 1 3 4 2 3 1 2 4 4 2 1 3 2 0 3 4 2 4 5 4 4 6 6 6 7 7 5 4 6 7 5 5 6 5 5 5 6 7 9 12 13 14 17 20 22 22 21 20 17 15 14 14 13 16 17 16 15 14 14 15 16 16 16 16 16 15 15 15 15 15 16 16 16 16 17 18 19 19 20 20 21 22 22
3 4 4 2 2 3 3 4 3 3 4 4 4 4 4 3 2 1 2 2 3 4 4 4 5 7 6 6 7 7 6 7 8 6 5 6 5 5 5 6 7 9 12 14 16 19 21 22 21 20 20 18 16 15 14 14 16 17 16 15 14 14 14 15 15 15 15 14 13 13 12 13 13 14 14 14 15 15 16 16 17 18 19 19 20 21
4 5 5 4 5 4 4 5 4 4 4 5 5 4 3 3 2 1 0 1 4 5 4 4 5 6 6 5 7 9 8 7 8 8 6 5 5 5 5 5 7 10 13 15 17 19 21 21 20 20 20 19 17 17 18 18 18 17 16 15 14 14 14 14 14 14 13 13 12 12 11 11 12 12 13 13 13 14 14 15 15 16 17 18 18 19
2 5 5 4 4 2 4 5 2 3 6 7 8 5 3 2 1 1 1 2 5 6 6 5 4 4 6 6 7 10 10 7 7 8 8 6 6 5 5 6 9 11 13 15 16 19 22 22 22 22 21 20 19 19 20 19 18 17 17 17 15 15 15 15 14 13 13 12 12 11 11 11 10 11 11 11 12 12 12 13 13 14 15 15 15 15
3 4 3 3 3 4 8 8 6 3 5 7 8 7 5 4 4 3 3 4 5 6 8 7 5 3 5 6 7 9 10 8 6 7 8 7 6 6 7 8 11 12 13 15 18 20 22 23 24 24 23 21 20 21 21 20 19 18 18 18 16 15 16 17 16 15 14 13 12 11 11 10 10 9 9 9 9 10 10 9 9 10 11 12 12 13
5 6 6 5 6 7 8 7 8 7 7 6 7 10 9 7 7 7 6 6 6 7 8 9 8 6 5 4 4 6 9 9 8 8 8 6 6 9 10 10 12 13 14 17 20 20 21 22 23 25 24 22 21 22 22 21 20 19 18 18 17 15 16 17 18 18 16 14 13 12 11 11 10 10 9 8 8 8 9 8 7 6 7 7 8 9
Wind_Direction
92 112 166 213 213 203 198 188 165 151 125 117 122 125 175 202 270 254 247 287 250 176 254 238 239 262 267 266 269 274 181 222 254 259 258 253 246 243 238 239 237 235 244 247 234 228 224 220 217 213 210 209 208 212 211 199 196 202 207 201 194 196 196 193 190 190 188 184 187 186 182 187 186 186 186 183 185 184 189 197 199 203 201 198 192 185
72 142 224 229 207 189 183 156 125 113 93 89 123 145 272 214 253 257 237 300 315 175 269 288 273 268 267 268 271 270 234 241 243 244 252 248 243 241 237 241 239 241 250 230 219 217 213 213 211 209 207 206 205 205 204 199 198 204 207 203 197 195 195 196 194 195 189 183 190 190 184 186 184 179 178 179 180 180 184 190 200 205 197 201 200 187
55 219 240 228 154 118 104 124 128 119 100 85 114 133 272 250 273 283 291 332 356 181 273 324 301 271 270 273 272 260 245 245 240 239 249 248 246 243 236 240 242 246 243 221 212 206 205 207 206 205 205 205 206 204 202 200 199 204 206 203 199 195 195 195 192 193 190 186 193 195 188 185 183 180 180 181 181 181 184 190 201 200 194 202 199 188
160 248 250 194 137 123 92 106 117 109 114 133 139 149 241 255 277 280 299 337 354 185 278 318 303 278 272 273 268 259 251 258 254 248 252 247 246 248 243 238 234 237 237 226 215 203 202 203 202 204 204 203 203 202 201 199 199 204 204 202 199 196 195 194 192 192 191 186 189 191 188 185 183 180 181 180 180 183 183 188 198 196 195 199 193 189
217 244 231 124 146 149 119 117 132 141 226 231 186 182 212 229 215 229 288 328 339 2 6 332 309 285 269 268 266 275 314 294 263 254 260 254 245 249 255 250 235 232 233 222 215 203 196 201 204 205 204 201 200 201 202 200 199 202 203 201 200 197 195 194 194 194 191 186 186 183 178 179 178 174 175 177 178 181 183 189 196 193 194 193 187 191
249 234 120 109 145 146 132 159 175 167 201 274 229 202 211 220 221 237 351 7 352 337 342 18 309 285 299 277 263 288 337 300 271 254 258 259 255 245 247 250 241 234 232 221 214 203 196 203 205 205 203 201 202 204 203 200 199 201 202 201 200 199 198 196 196 197 196 196 194 187 178 174 173 169 172 179 182 184 188 194 194 189 191 191 188 194
243 221 100 120 144 147 148 195 220 175 149 276 249 205 210 206 207 230 110 63 294 267 296 55 182 273 306 282 262 269 281 276 274 268 263 264 265 246 238 247 243 235 232 225 216 200 198 201 200 203 204 202 203 204 201 199 199 200 201 201 200 199 199 200 199 198 197 198 195 191 188 188 187 181 179 184 188 190 191 192 191 189 193 194 193 192
184 171 95 116 117 134 165 212 221 168 138 240 248 168 170 175 194 201 159 179 238 264 308 38 127 263 287 274 272 263 255 271 275 270 269 264 260 255 247 246 242 234 223 216 213 202 200 202 200 204 205 204 203 200 198 198 199 200 201 201 200 199 199 201 202 200 198 197 193 192 194 195 193 189 187 189 192 192 190 189 192 194 196 194 190 187
163 179 184 162 138 168 194 217 190 157 149 243 207 125 134 151 166 140 133 183 329 350 291 249 127 250 266 264 311 338 248 267 268 262 264 265 263 262 258 254 251 241 221 209 210 206 203 203 205 207 204 202 201 197 197 198 198 200 200 199 200 200 200 201 202 203 202 202 201 200 198 192 189 190 190 189 191 191 189 190 193 195 193 189 185 183
130 200 197 163 164 200 204 242 181 160 174 203 128 96 79 79 81 86 114 136 57 322 253 203 150 233 268 238 238 338 235 244 255 257 261 266 268 265 266 272 272 261 237 219 216 210 206 207 206 205 202 199 199 198 198 198 198 199 198 198 199 201 203 202 202 204 204 204 204 201 197 193 190 190 187 184 185 188 189 190 191 190 188 185 183 181
307 280 213 165 178 184 132 69 144 145 145 140 107 68 48 38 42 53 58 85 73 277 259 201 174 193 267 252 196 222 221 216 237 257 268 274 278 273 272 283 278 267 249 225 218 204 197 202 201 197 197 197 196 197 197 198 199 198 197 197 198 201 204 205 205 206 207 205 202 200 200 200 198 192 184 180 181 183 186 188 187 186 185 184 182 180
333 334 258 242 177 121 98 69 27 58 106 108 88 79 65 351 9 23 356 49 135 257 279 231 176 181 236 257 230 245 256 238 230 242 257 265 273 273 266 275 273 254 235 212 199 185 171 178 187 189 192 192 193 195 196 197 198 198 198 197 197 199 203 205 206 207 208 205 203 204 204 204 201 195 189 185 184 184 186 187 186 185 184 182 181 180
288 235 263 309 249 137 113 84 37 21 55 88 103 110 100 333 355 345 300 83 221 254 281 353 142 193 236 252 254 258 260 252 235 228 238 248 261 269 257 254 272 252 215 203 191 184 175 175 182 186 188 189 191 193 195 196 197 198 198 197 197 199 201 204 205 206 206 205 205 206 205 203 199 196 195 194 190 188 188 188 187 185 184 182 180 178
276 289 282 204 265 181 153 153 150 190 179 155 150 142 137 145 159 262 265 274 264 268 273 239 234 254 260 260 244 240 244 247 242 235 233 238 250 263 268 263 272 258 217 212 204 193 193 191 188 188 189 189 191 193 194 196 196 197 198 198 199 200 201 202 204 205 205 205 205 205 204 201 199 198 199 198 194 190 189 191 191 189 186 183 180 178
220 279 217 179 206 184 181 189 164 138 159 183 155 137 159 166 170 217 224 223 258 283 296 267 232 199 201 248 241 235 253 265 259 254 249 251 249 255 281 283 267 253 230 219 215 207 205 197 191 192 192 193 193 193 194 195 197 197 198 199 199 200 201 202 204 205 206 206 204 202 201 201 202 203 202 199 194 191 191 192 192 191 187 184 181 178
203 260 245 226 198 168 182 197 119 109 140 214 114 118 194 192 166 205 206 178 197 308 299 240 225 215 207 274 272 246 265 273 266 271 267 264 257 241 261 268 262 255 236 220 220 216 210 198 195 194 195 196 195 193 195 196 196 197 198 199 200 201 202 203 205 206 206 205 203 202 202 203 204 203 200 196 192 191 191 193 193 191 187 184 181 179
180 269 286 336 3 169 185 188 124 136 177 160 141 181 213 171 139 140 257 57 66 302 271 208 240 287 314 285 272 250 261 270 273 276 258 257 261 245 246 250 249 251 236 223 223 214 204 197 198 198 197 197 196 195 197 198 198 199 198 198 199 201 202 204 206 206 205 203 203 203 204 205 204 202 199 196 193 192 192 192 192 189 186 183 182 181
166 254 299 63 180 272 311 114 74 24 129 132 186 205 164 89 108 114 220 346 41 256 273 235 239 279 297 272 293 277 253 258 260 259 253 259 261 248 254 250 238 238 233 235 227 210 205 200 200 201 201 200 200 199 199 200 200 201 201 200 199 199 201 204 205 204 204 202 202 204 205 205 204 202 200 198 197 197 196 193 190 187 185 184 183 183
157 229 306 40 178 299 0 102 79 354 86 136 185 184 124 141 207 109 157 217 209 248 282 284 259 254 209 229 267 220 224 239 250 251 248 255 252 241 255 255 240 231 231 237 227 210 207 203 201 201 203 204 204 203 202 201 201 202 203 203 202 202 203 204 204 202 202 203 203 206 206 207 206 202 200 198 198 200 200 196 192 188 186 185 185 185
128 201 271 343 273 313 22 147 191 209 57 73 115 132 107 162 181 161 158 169 179 230 277 301 304 256 213 207 204 214 219 219 233 243 242 247 246 235 245 251 233 216 222 224 218 217 210 203 204 202 202 204 204 204 203 201 202 203 204 205 204 204 204 203 202 201 201 203 204 206 207 208 207 203 201 201 201 202 202 198 194 191 189 188 187 187
94 206 238 324 342 160 189 220 197 177 158 149 163 172 186 151 109 162 197 130 141 169 209 293 295 267 232 186 190 208 220 218 217 223 237 250 250 235 235 242 230 213 226 226 213 216 209 201 205 203 204 206 204 205 204 202 204 204 204 206 205 204 203 202 202 202 203 204 205 206 206 207 205 204 204 205 205 205 203 200 196 192 191 190 189 189
180 194 186 165 232 200 221 248 205 188 184 179 185 193 192 175 143 176 240 209 119 156 179 190 277 270 240 182 203 205 212 229 213 197 231 253 258 256 245 230 229 220 223 228 218 216 207 196 199 199 201 203 202 204 204 203 204 204 204 206 205 205 205 203 203 203 204 205 206 207 207 206 205 205 206 207 206 206 204 200 196 194 193 192 192 191
158 123 154 188 217 221 241 277 199 213 228 203 206 204 189 182 170 171 208 213 149 225 182 123 270 272 246 170 225 217 196 235 215 185 237 256 249 256 257 238 241 239 227 226 221 217 208 196 196 196 197 200 202 204 204 204 204 204 204 205 204 205 206 205 205 205 205 206 207 208 208 207 206 206 207 207 207 207 205 201 198 196 195 194 194 193
115 126 186 241 298 303 306 327 8 84 153 234 241 200 165 196 185 158 184 180 161 203 181 123 250 265 276 155 242 255 244 260 242 189 230 268 269 257 252 246 241 242 238 230 223 217 207 197 194 196 198 200 203 204 205 205 205 205 205 204 204 206 205 206 206 206 206 207 208 208 208 208 207 206 206 207 207 207 205 202 199 197 197 196 195 194
171 185 193 208 276 310 314 313 305 236 166 222 235 197 189 193 158 114 130 116 198 218 186 177 241 251 282 318 302 312 315 290 261 217 191 243 269 269 259 253 231 231 235 221 215 213 204 200 199 201 202 201 203 205 205 206 206 205 205 205 205 205 205 206 206 206 207 207 208 208 208 208 208 207 207 206 206 206 205 203 200 199 199 198 197 195
176 183 187 193 217 232 232 231 226 191 150 239 227 194 203 188 169 182 173 143 231 224 177 197 240 246 319 333 323 313 308 286 273 275 248 226 249 264 268 257 227 223 228 216 211 210 210 215 213 208 206 205 205 205 205 206 207 207 207 206 206 205 204 205 206 206 207 207 207 207 208 208 208 208 208 207 206 206 204 203 201 201 200 199 198 197
158 187 195 198 211 225 231 229 180 140 143 207 212 188 199 199 187 194 190 200 218 202 190 222 233 245 263 280 282 273 254 237 249 285 295 262 247 257 262 253 228 217 222 216 213 215 217 222 222 213 211 209 207 207 207 207 208 208 208 207 206 205 204 204 205 205 206 206 206 207 208 208 208 208 209 208 207 207 205 204 203 202 202 201 199 198
119 211 208 209 219 232 239 220 167 153 167 199 202 190 198 201 191 194 211 222 205 149 244 235 215 242 252 233 230 249 241 242 245 245 255 253 246 250 254 254 245 235 228 216 218 223 222 225 223 215 212 210 208 209 209 210 210 210 210 209 206 205 203 203 203 203 204 204 205 208 209 208 209 210 210 209 208 208 206 205 205 204 203 202 201 201
159 219 216 218 230 243 250 224 174 180 186 190 193 194 197 194 194 203 219 228 210 193 246 240 172 223 248 234 221 229 214 222 231 223 230 239 244 250 244 239 247 248 238 225 225 226 223 227 225 211 210 208 208 210 210 210 211 210 211 211 207 205 204 202 201 201 203 203 205 207 208 208 208 209 209 208 207 207 207 206 206 205 205 204 203 203
173 224 222 221 234 248 254 235 183 193 208 199 195 197 196 193 199 209 220 228 222 221 248 252 215 237 252 233 216 221 208 218 233 235 240 233 238 245 240 234 242 242 237 232 233 231 226 230 225 206 205 207 208 211 209 209 210 209 209 209 207 205 204 202 201 201 202 203 205 206 206 206 207 207 206 206 206 207 207 206 207 206 206 205 205 205
183 226 227 223 239 256 257 249 218 207 220 228 220 206 203 203 207 214 220 224 225 232 247 253 256 260 257 201 203 218 202 222 247 251 248 242 243 248 247 241 240 239 240 238 237 236 230 227 221 206 207 212 212 211 209 210 210 208 208 208 206 205 204 203 202 202 202 204 204 204 203 204 204 204 205 205 206 207 207 207 208 208 208 208 207 207
179 222 250 213 232 247 251 253 250 241 239 242 238 221 214 213 214 216 218 216 213 223 239 247 252 258 246 150 188 215 188 209 234 238 242 244 239 239 241 241 239 239 242 241 240 238 229 222 216 210 214 217 215 212 211 210 207 206 208 207 205 204 203 202 203 202 203 203 202 202 202 202 202 203 205 206 206 207 208 208 209 209 209 209 208 209
169 186 205 184 214 246 250 250 245 236 235 238 233 225 220 218 218 218 221 223 216 214 225 231 236 248 244 156 205 224 191 207 229 229 235 242 236 232 237 241 242 242 241 241 242 239 231 225 220 219 222 221 216 214 213 209 205 207 208 205 203 203 202 202 203 202 202 202 201 201 201 201 202 203 205 207 208 209 209 209 209 209 210 210 210 210
175 188 206 186 208 250 248 217 172 205 225 232 229 226 224 219 215 216 223 227 221 213 224 237 247 257 254 220 220 225 206 215 229 230 234 240 235 231 236 238 238 240 242 244 245 244 238 234 230 229 229 225 219 216 213 209 208 209 207 203 201 201 200 201 201 201 202 202 200 200 200 201 202 204 206 208 208 208 208 208 209 209 210 210 210 210
182 193 200 182 213 249 200 146 188 219 226 239 240 222 222 218 213 217 228 233 226 217 229 245 254 256 253 241 227 219 219 229 242 248 248 241 219 220 234 241 238 237 242 245 246 245 241 238 234 231 228 223 216 211 208 206 206 204 201 199 198 197 198 198 198 200 201 201 201 200 200 202 203 205 207 207 207 206 207 208 209 208 208 208 209 211
184 188 189 185 203 215 158 186 222 241 272 291 282 231 209 211 207 214 234 243 233 219 220 232 242 247 250 250 243 227 226 251 275 262 241 225 223 225 235 245 242 233 235 235 234 239 244 244 240 233 226 218 209 204 202 200 198 194 193 194 194 194 195 195 196 198 199 200 200 201 202 203 204 204 204 204 203 204 205 207 208 208 209 209 210 213
191 183 186 203 200 204 218 222 238 291 312 278 255 222 177 188 188 188 221 242 233 219 215 224 236 244 249 252 253 243 210 308 292 269 209 200 227 231 231 243 245 236 241 244 243 250 258 256 246 235 222 208 198 196 195 191 189 186 184 186 189 190 191 192 195 197 197 199 200 202 203 203 202 201 201 201 202 203 205 207 208 209 211 211 212 214
202 192 190 204 202 201 222 233 239 255 257 251 246 204 159 178 177 169 199 242 238 218 213 219 230 240 247 251 252 235 104 275 276 266 198 199 231 240 240 255 268 262 264 267 255 253 254 244 230 215 200 188 183 187 185 181 181 179 177 179 183 186 188 191 194 196 197 198 200 201 202 203 203 203 202 203 204 205 206 207 208 210 213 214 216 217
207 205 199 203 204 197 208 227 229 220 238 251 245 179 157 168 148 135 178 245 245 224 208 209 224 234 241 244 240 173 127 236 262 263 209 204 255 305 264 267 307 306 275 266 250 240 222 197 181 173 172 168 167 174 177 177 176 173 172 177 180 182 186 191 195 197 197 198 200 201 203 204 205 205 205 206 207 207 207 207 209 212 215 217 219 222
205 211 210 209 213 209 209 225 230 224 250 255 229 165 171 155 126 122 196 244 243 219 183 182 208 226 232 234 222 168 182 227 250 257 196 174 48 15 352 324 2 355 351 20 197 182 163 155 149 148 154 159 163 169 173 173 171 169 170 173 176 181 189 194 197 197 198 200 201 202 204 205 206 206 207 208 209 209 210 212 213 215 217 220 223 227
203 208 210 212 220 217 215 228 237 233 249 246 195 160 157 134 128 169 222 235 205 161 161 174 194 216 226 221 202 197 213 223 217 152 123 122 100 52 32 57 80 72 71 91 115 125 127 131 135 139 147 157 161 164 168 168 164 162 165 169 175 185 193 197 197 196 197 199 200 201 203 205 206 207 209 211 213 214 216 218 220 221 223 226 229 231
196 204 207 211 220 221 222 231 242 247 237 193 134 144 159 154 182 214 225 251 117 151 170 182 193 208 217 211 202 206 209 163 115 119 111 114 129 126 99 101 97 87 90 101 110 117 115 111 114 121 131 148 157 160 164 163 156 155 162 169 178 188 192 194 194 193 193 195 196 198 201 202 205 209 212 215 217 218 219 221 224 227 229 230 230 230
179 185 202 205 204 215 228 224 228 249 225 141 118 122 216 202 212 209 165 42 75 167 173 189 203 207 203 202 204 186 139 112 120 126 115 118 131 128 121 115 104 97 98 99 104 116 115 107 104 112 124 141 152 157 161 158 151 153 160 167 177 185 187 189 190 190 190 192 194 198 201 204 208 212 215 217 218 219 221 223 224 226 227 227 227 227
180 184 205 206 194 197 217 218 213 230 202 152 144 184 218 205 194 164 146 140 227 191 172 188 212 208 187 184 176 152 136 136 141 137 127 126 128 117 105 97 94 94 95 98 107 119 119 112 108 111 119 133 145 152 160 160 153 151 157 164 173 179 180 182 184 185 187 190 193 197 202 206 210 212 215 217 218 218 220 221 221 222 223 224 225 225
205 197 192 200 209 205 211 226 228 209 202 185 169 205 225 211 149 131 146 152 195 202 180 181 195 191 178 163 149 148 166 160 149 143 132 126 119 107 96 83 82 90 94 96 104 114 116 113 110 108 108 118 132 143 155 160 155 152 155 163 170 174 174 176 178 181 184 188 192 196 200 204 207 211 214 216 217 216 216 217 218 218 220 222 223 225
223 199 133 148 265 281 257 228 257 310 264 250 271 298 253 259 191 149 157 173 194 188 171 172 174 166 163 158 149 151 166 152 140 130 120 121 117 105 102 93 89 98 103 102 105 110 110 108 105 103 100 103 115 129 141 152 153 149 150 156 162 165 166 168 171 174 178 182 187 192 196 199 201 206 210 213 216 217 219 220 220 219 221 222 224 227
240 186 146 141 237 256 247 222 213 249 263 270 297 292 261 270 303 194 194 204 179 161 157 155 148 145 153 158 149 145 147 143 139 133 127 126 123 119 122 117 108 109 112 114 119 120 116 110 106 104 101 100 107 118 125 133 138 138 140 145 148 152 156 158 161 164 167 172 177 181 186 190 192 196 201 204 210 213 217 222 224 223 224 225 226 229
216 176 162 184 196 197 234 248 255 282 272 250 250 258 247 244 280 328 276 158 125 120 121 119 124 138 150 155 146 140 140 145 144 141 139 135 132 133 132 124 120 116 114 118 125 125 118 112 109 108 103 100 106 115 119 122 126 129 133 136 138 144 148 149 151 153 155 160 165 169 175 182 185 189 193 198 204 209 214 220 224 226 230 233 235 237
146 156 172 187 177 186 253 249 248 321 293 253 230 229 244 243 218 62 62 112 112 111 111 103 104 135 147 152 149 138 137 149 155 144 139 138 137 137 131 118 112 110 108 112 119 120 117 114 113 110 106 105 112 118 119 119 123 127 131 132 135 141 143 141 143 146 147 152 157 160 166 173 179 185 190 193 199 204 212 220 225 229 235 241 245 248
138 168 177 153 153 214 238 223 184 188 255 244 212 199 203 195 170 156 151 140 134 138 135 120 98 92 119 138 152 146 140 146 155 145 138 140 140 137 133 122 111 105 107 112 115 116 117 118 118 116 112 113 119 121 119 118 120 125 129 130 133 138 140 137 136 136 139 143 146 149 155 160 163 171 178 183 190 195 201 211 222 230 236 241 247 252
191 186 178 178 203 226 226 199 178 199 242 243 190 180 185 179 170 175 179 170 164 163 156 141 128 121 117 119 142 152 145 144 150 144 132 127 130 131 131 129 124 120 122 124 123 120 119 121 122 120 118 120 124 122 118 116 117 120 124 126 129 135 138 137 134 131 131 135 136 137 143 146 147 153 157 161 170 179 183 188 195 210 225 232 240 248